Flag for U.S.A. Weather past 2 weeks in Flagstaff, Arizona, U.S.A.

Now
65 °F

Partly sunny.


Feels Like: 65 °F
Forecast: 50 / 71 °F
Wind: 9 mph from Southwest

Location: Flagstaff Pulliam Airport

Current Time: Sep 21, 2014 at 11:17:40 AM

Latest Report: Sep 21, 2014 at 10:57 AM


Visibility: 10 mi

Pressure: 30.06 "Hg

Humidity: 68%

Dew point: 54 °F

Location of FlagstaffLocation

Historic Weather in Flagstaff — Graph

°F

Flagstaff temperature yesterday

Maximum temperature yesterday: 78 °F (at 12:57 PM)
Minimum temperature yesterday: 47 °F (at 4:57 AM)
Average temperature yesterday: 61 °F

Past Weeks' High & Low Weather Summary

 TemperatureHumidityPressure
High79 °F (Sep 12, 1:57 PM)97% (Sep 8, 6:57 AM)30.35 "Hg (Sep 8, 6:57 AM)
Low39 °F (Sep 11, 5:57 AM)19% (Sep 11, 12:57 PM)29.81 "Hg (Sep 18, 2:57 PM)
Average60 °F70%29.99 "Hg
* Reported Sep 6 9:57 AM — Sep 21 9:57 AM, Flagstaff, Weather by CustomWeather, © 2014

Note: Actual official high and low records may vary slightly from our data, if they occured in-between our weather recording intervals... More about our weather records

Advertising

Flagstaff weather history for previous 24 hours

 ConditionsComfort  
Time TempWeatherWind HumidityBarometerVisibility
9:57 AM
Sep 21
64 °FPartly sunny.10 mph70%30.06 "Hg10 mi
8:57 AM64 °FSunny.6 mph73%30.04 "Hg10 mi
7:57 AM62 °FSunny.No wind75%30.04 "Hg10 mi
6:57 AM53 °FPassing clouds.No wind89%30.07 "Hg10 mi
5:57 AM52 °FClear.No wind93%30.03 "Hg10 mi
4:57 AM55 °FOvercast.No wind90%29.99 "Hg10 mi
3:57 AM55 °FOvercast.No wind90%29.98 "Hg10 mi
2:57 AM54 °FPassing clouds.No wind93%29.99 "Hg10 mi
1:57 AM56 °FClear.5 mph90%29.95 "Hg10 mi
12:57 AM59 °FOvercast.3 mph84%29.95 "Hg10 mi
11:57 PM
Sep 20
59 °FPassing clouds.3 mph84%30.29 "Hg10 mi
10:57 PM60 °FPassing clouds.6 mph83%30.28 "Hg10 mi
9:57 PM61 °FPassing clouds.No wind78%30.27 "Hg10 mi
8:57 PM63 °FPassing clouds.No wind73%30.26 "Hg10 mi
7:57 PM62 °FPassing clouds.3 mph73%29.98 "Hg10 mi
6:57 PM63 °FPassing clouds.No wind73%30.01 "Hg10 mi
5:57 PM67 °FPartly sunny.5 mph63%29.97 "Hg10 mi
4:57 PM72 °FPartly sunny.10 mph44%29.94 "Hg10 mi
4:04 PM71 °FPartly sunny.5 mph55%30.22 "Hg10 mi
3:57 PM71 °FThunderstorms. Overcast.6 mph55%29.95 "Hg10 mi
2:57 PM66 °FThunderstorms. Mostly cloudy.12 mph70%29.97 "Hg10 mi
1:57 PM78 °FScattered clouds.7 mph31%29.92 "Hg10 mi
12:57 PM78 °FSunny.8 mph30%29.94 "Hg10 mi
Weather by CustomWeather, © 2014

See weather overviewHow to use our weather pages